Greenville, AL

2:36 AM CDT on August 28, 2016 (GMT -0500)
Greenville Municipal

Weather History for KPRN - November, 2012

Change the Weather History Date:

Saturday, November 3, 2012

  Actual Average Record
Temperature  
Mean Temperature 66 °F -  
Max Temperature 82 °F 74 °F 91 °F (1987)
Min Temperature 51 °F 49 °F 22 °F (1966)
Cooling Degree Days 2    
Growing Degree Days 16 (Base 50)    
Moisture  
Dew Point 55 °F    
Average Humidity 84    
Maximum Humidity 100    
Minimum Humidity 39    
Precipitation  
Precipitation 0.00 in - - ()
Sea Level Pressure  
Sea Level Pressure 30.06 in    
Wind  
Wind Speed 1 mph (WSW)    
Max Wind Speed 8 mph    
Max Gust Speed -    
Visibility 5 miles    
Events Fog    
Averages and records for this station are not official NWS values.
T = Trace of Precipitation, MM = Missing Value Source: NWS Daily Summary

Daily Weather History Graph

Daily Weather History Graph

Search for Another Location

Airport or City:

Trip Planner

Search our weather history database for the weather conditions in past years. The results will help you decide how hot, cold, wet, or windy it might be!

Date:

Astronomy

Nov. 03, 2012 Rise Set
Actual Time 7:04 AM CDT 5:54 PM CDT
Civil Twilight 6:39 AM CDT 6:19 PM CDT
Nautical Twilight 6:10 AM CDT 6:48 PM CDT
Astronomical Twilight 5:42 AM CDT 7:17 PM CDT
Moon 9:40 PM CDT (11/3) 11:02 AM CDT (11/3)
Length of Visible Light 11h 40m
Length of Day
10h 49m
Waning Gibbous, 80% of the Moon is Illuminated
Nov 3
Waning Gibbous
Nov 6
Last Quarter
Nov 13
New
Nov 20
First Quarter
Nov 28
Full

Hourly Weather History & Observations

Time (CDT) Temp. Heat Index Dew Point Humidity Pressure Visibility Wind Dir Wind Speed Gust Speed Precip Events Conditions
12:56 AM 57.9 °F - 55.0 °F 90% 30.03 in 8.0 mi WSW 3.5 mph - N/A   Clear
1:56 AM 57.0 °F - 54.0 °F 89% 30.03 in 9.0 mi Calm Calm - N/A   Clear
2:56 AM 55.9 °F - 53.1 °F 90% 30.03 in 9.0 mi Calm Calm - N/A   Clear
3:47 AM 55.4 °F - 53.6 °F 94% 30.04 in 5.0 mi Calm Calm - N/A   Partly Cloudy
3:56 AM 54.0 °F - 53.1 °F 97% 30.03 in 4.0 mi Calm Calm - N/A   Scattered Clouds
3:59 AM 55.4 °F - 53.6 °F 94% 30.04 in 1.8 mi Calm Calm - N/A   Scattered Clouds
4:01 AM 55.4 °F - 53.6 °F 94% 30.04 in 0.8 mi Calm Calm - N/A   Mist
4:15 AM 55.4 °F - 53.6 °F 94% 30.04 in 1.5 mi Calm Calm - N/A   Scattered Clouds
4:18 AM 55.4 °F - 53.6 °F 94% 30.04 in 3.0 mi Calm Calm - N/A   Scattered Clouds
4:21 AM 53.6 °F - 53.6 °F 100% 30.04 in 1.8 mi Calm Calm - N/A   Scattered Clouds
4:26 AM 53.6 °F - 53.6 °F 100% 30.05 in 0.8 mi Calm Calm - N/A   Mist
4:35 AM 53.6 °F - 53.6 °F 100% 30.05 in 1.2 mi Calm Calm - N/A   Partly Cloudy
4:44 AM 53.6 °F - 51.8 °F 94% 30.05 in 8.0 mi Calm Calm - N/A   Partly Cloudy
4:56 AM 55.0 °F - 53.1 °F 93% 30.04 in 3.0 mi Calm Calm - N/A   Scattered Clouds
5:00 AM 53.6 °F - 53.6 °F 100% 30.06 in 1.2 mi Calm Calm - N/A   Scattered Clouds
5:08 AM 53.6 °F - 51.8 °F 94% 30.06 in 1.2 mi Calm Calm - N/A   Mostly Cloudy
5:21 AM 53.6 °F - 51.8 °F 94% 30.06 in 0.8 mi Calm Calm - N/A   Mist
5:35 AM 53.6 °F - 51.8 °F 94% 30.07 in 4.0 mi Calm Calm - N/A   Partly Cloudy
5:56 AM 53.1 °F - 52.0 °F 96% 30.06 in 2.5 mi Calm Calm - N/A   Scattered Clouds
6:05 AM 53.6 °F - 51.8 °F 94% 30.07 in 1.0 mi Calm Calm - N/A   Mist
6:13 AM 53.6 °F - 51.8 °F 94% 30.08 in 0.2 mi Calm Calm - N/A Fog Fog
6:42 AM 51.8 °F - 50.0 °F 94% 30.08 in 1.2 mi Calm Calm - N/A   Scattered Clouds
6:52 AM 51.8 °F - 51.8 °F 100% 30.09 in 2.0 mi Calm Calm - N/A   Partly Cloudy
6:56 AM 52.0 °F - 50.0 °F 93% 30.09 in 2.5 mi Calm Calm - N/A   Scattered Clouds
7:00 AM 51.8 °F - 50.0 °F 94% 30.09 in 2.5 mi Calm Calm - N/A   Mostly Cloudy
7:02 AM 53.6 °F - 51.8 °F 94% 30.09 in 0.8 mi Calm Calm - N/A   Mist
7:46 AM 53.6 °F - 51.8 °F 94% 30.11 in 2.0 mi Calm Calm - N/A   Overcast
7:54 AM 55.4 °F - 53.6 °F 94% 30.11 in 5.0 mi Calm Calm - N/A   Mostly Cloudy
7:56 AM 55.0 °F - 53.1 °F 93% 30.11 in 6.0 mi Calm Calm - N/A   Mostly Cloudy
8:09 AM 57.2 °F - 55.4 °F 94% 30.12 in 4.0 mi Calm Calm - N/A   Partly Cloudy
8:56 AM 66.0 °F - 60.1 °F 81% 30.11 in 9.0 mi Calm Calm - N/A   Clear
9:56 AM 75.0 °F - 61.0 °F 62% 30.11 in 10.0 mi WNW 8.1 mph - N/A   Clear
10:56 AM 78.1 °F - 61.0 °F 56% 30.11 in 10.0 mi NW 6.9 mph - N/A   Clear
11:56 AM 80.1 °F 80.9 °F 60.1 °F 50% 30.09 in 10.0 mi NW 5.8 mph - N/A   Clear
12:56 PM 82.0 °F 82.4 °F 60.1 °F 47% 30.07 in 10.0 mi Variable 6.9 mph - N/A   Clear
1:56 PM 82.9 °F 82.8 °F 59.0 °F 44% 30.05 in 10.0 mi Variable 5.8 mph - N/A   Scattered Clouds
2:56 PM 82.9 °F 82.1 °F 55.9 °F 39% 30.04 in 10.0 mi SW 6.9 mph - N/A   Partly Cloudy
3:56 PM 82.9 °F 82.4 °F 57.0 °F 41% 30.03 in 10.0 mi WSW 5.8 mph - N/A   Clear
4:56 PM 81.0 °F 81.1 °F 57.9 °F 45% 30.03 in 10.0 mi WSW 5.8 mph - N/A   Clear
5:56 PM 77.0 °F - 57.9 °F 52% 30.03 in 10.0 mi SW 3.5 mph - N/A   Clear
6:56 PM 69.1 °F - 61.0 °F 75% 30.04 in 10.0 mi Calm Calm - N/A   Clear
7:56 PM 66.0 °F - 60.1 °F 81% 30.04 in 10.0 mi Calm Calm - N/A   Clear
9:56 PM 64.0 °F - 59.0 °F 84% 30.06 in 10.0 mi WSW 3.5 mph - N/A   Clear
10:56 PM 62.1 °F - 57.9 °F 86% 30.06 in 10.0 mi SW 4.6 mph - N/A   Clear